�������l�o���
Date,Time,MP-1(��Sv/h),MP-2(��Sv/h),MP-3(��Sv/h),MP-4(��Sv/h),MP-5(��Sv/h),MP-6(��Sv/h),MP-7(��Sv/h),MP-8(��Sv/h),����,����(m/s),���J
2023/04/03,00:00,0.561,0.826,0.498,1.031,0.724,0.322,0.581,0.549,�k�k��,4.4,��
2023/04/03,00:10,0.561,0.827,0.495,1.032,0.727,0.322,0.579,0.548,�k�k��,4.5,��
2023/04/03,00:20,0.562,0.826,0.496,1.032,0.724,0.322,0.580,0.547,�k,4.6,��
2023/04/03,00:30,0.562,0.827,0.494,1.031,0.726,0.322,0.580,0.547,�k,4.7,��
2023/04/03,00:40,0.561,0.822,0.497,1.031,0.724,0.322,0.580,0.548,�k,4.6,��
2023/04/03,00:50,0.561,0.824,0.495,1.030,0.724,0.323,0.579,0.548,�k�k��,4.0,��
2023/04/03,01:00,0.563,0.826,0.495,1.029,0.725,0.323,0.580,0.549,�k�k��,6.1,��
2023/04/03,01:10,0.561,0.825,0.493,1.031,0.724,0.321,0.579,0.548,�k�k��,6.2,��
2023/04/03,01:20,0.561,0.826,0.495,1.033,0.725,0.322,0.578,0.547,�k,4.9,��
2023/04/03,01:30,0.564,0.824,0.496,1.029,0.724,0.322,0.578,0.548,�k�k��,3.7,��
2023/04/03,01:40,0.562,0.826,0.495,1.031,0.725,0.322,0.579,0.547,�k�k��,4.8,��
2023/04/03,01:50,0.563,0.826,0.496,1.029,0.725,0.322,0.579,0.548,�k�k��,4.4,��
2023/04/03,02:00,0.561,0.830,0.495,1.031,0.724,0.323,0.579,0.549,�k�k��,5.1,��
2023/04/03,02:10,0.561,0.826,0.495,1.031,0.725,0.323,0.579,0.547,�k�k��,5.6,��
2023/04/03,02:20,0.562,0.826,0.495,1.031,0.725,0.322,0.579,0.548,�k�k��,5.2,��
2023/04/03,02:30,0.562,0.826,0.495,1.029,0.725,0.323,0.579,0.549,�k��,5.5,��
2023/04/03,02:40,0.562,0.825,0.495,1.030,0.726,0.323,0.578,0.549,�k�k��,5.0,��
2023/04/03,02:50,0.562,0.825,0.496,1.031,0.726,0.323,0.578,0.549,�k�k��,5.6,��
2023/04/03,03:00,0.562,0.826,0.496,1.031,0.725,0.323,0.578,0.550,�k�k��,4.6,��
2023/04/03,03:10,0.562,0.825,0.496,1.028,0.726,0.324,0.577,0.550,�k�k��,5.0,��
2023/04/03,03:20,0.560,0.824,0.495,1.030,0.725,0.323,0.578,0.549,�k�k��,5.1,��
2023/04/03,03:30,0.561,0.826,0.495,1.029,0.725,0.323,0.580,0.548,�k�k��,5.4,��
2023/04/03,03:40,0.562,0.826,0.497,1.030,0.727,0.323,0.578,0.549,�k�k��,5.1,��
2023/04/03,03:50,0.563,0.828,0.495,1.031,0.724,0.322,0.577,0.547,�k�k��,5.3,��
2023/04/03,04:00,0.562,0.827,0.495,1.029,0.724,0.323,0.578,0.548,�k�k��,5.3,��
2023/04/03,04:10,0.561,0.825,0.494,1.029,0.724,0.323,0.577,0.547,�k�k��,4.2,��
2023/04/03,04:20,0.561,0.825,0.495,1.029,0.724,0.322,0.579,0.549,�k�k��,4.8,��
2023/04/03,04:30,0.562,0.823,0.496,1.031,0.726,0.322,0.579,0.547,�k�k��,4.9,��
2023/04/03,04:40,0.562,0.824,0.495,1.030,0.725,0.322,0.576,0.548,�k�k��,4.7,��
2023/04/03,04:50,0.563,0.824,0.495,1.033,0.727,0.321,0.576,0.549,�k�k��,4.7,��
2023/04/03,05:00,0.561,0.826,0.496,1.031,0.726,0.323,0.578,0.549,�k�k��,4.9,��
2023/04/03,05:10,0.561,0.825,0.494,1.031,0.725,0.323,0.579,0.546,�k�k��,5.0,��
2023/04/03,05:20,0.562,0.824,0.494,1.030,0.725,0.322,0.578,0.548,�k�k��,5.3,��
2023/04/03,05:30,0.561,0.825,0.496,1.029,0.726,0.321,0.577,0.547,�k�k��,5.7,�L
2023/04/03,05:40,0.561,0.826,0.495,1.029,0.723,0.323,0.578,0.549,�k�k��,5.4,��
2023/04/03,05:50,0.560,0.825,0.495,1.031,0.726,0.321,0.578,0.550,�k�k��,6.1,��
2023/04/03,06:00,0.562,0.827,0.495,1.031,0.724,0.322,0.576,0.547,�k�k��,6.0,��
2023/04/03,06:10,0.561,0.825,0.495,1.031,0.722,0.322,0.579,0.547,�k�k��,4.7,��
2023/04/03,06:20,0.562,0.824,0.497,1.030,0.727,0.322,0.577,0.548,�k�k��,4.5,��
2023/04/03,06:30,0.560,0.826,0.495,1.031,0.724,0.322,0.578,0.550,�k�k��,5.3,��
2023/04/03,06:40,0.560,0.825,0.497,1.030,0.726,0.322,0.577,0.548,�k�k��,4.8,��
2023/04/03,06:50,0.561,0.826,0.495,1.031,0.725,0.321,0.577,0.549,�k�k��,6.0,��
2023/04/03,07:00,0.562,0.824,0.495,1.031,0.725,0.322,0.577,0.548,�k�k��,5.9,��
2023/04/03,07:10,0.560,0.828,0.495,1.029,0.726,0.322,0.578,0.548,�k�k��,6.2,��
2023/04/03,07:20,0.562,0.826,0.495,1.031,0.725,0.322,0.576,0.548,�k�k��,5.2,��
2023/04/03,07:30,0.561,0.826,0.495,1.032,0.725,0.322,0.577,0.549,�k�k��,5.7,��
2023/04/03,07:40,0.562,0.826,0.493,1.031,0.725,0.321,0.579,0.547,�k�k��,6.6,��
2023/04/03,07:50,0.561,0.827,0.495,1.030,0.726,0.321,0.577,0.547,�k�k��,5.5,��
2023/04/03,08:00,0.563,0.826,0.494,1.031,0.727,0.322,0.577,0.548,�k�k��,5.8,��
2023/04/03,08:10,0.561,0.824,0.496,1.031,0.725,0.321,0.577,0.548,�k�k��,5.9,��
2023/04/03,08:20,0.562,0.823,0.497,1.032,0.725,0.322,0.576,0.547,�k�k��,4.9,��
2023/04/03,08:30,0.562,0.827,0.495,1.030,0.725,0.322,0.577,0.548,�k�k��,5.4,��
2023/04/03,08:40,0.564,0.826,0.495,1.031,0.726,0.322,0.577,0.548,�k�k��,6.2,��
2023/04/03,08:50,0.562,0.824,0.496,1.032,0.726,0.320,0.578,0.547,�k�k��,5.0,��
2023/04/03,09:00,0.562,0.825,0.494,1.029,0.726,0.322,0.577,0.547,�k�k��,6.1,��
2023/04/03,09:10,0.562,0.825,0.495,1.031,0.728,0.323,0.576,0.548,�k�k��,5.2,��
2023/04/03,09:20,0.561,0.825,0.495,1.030,0.726,0.321,0.577,0.546,�k�k��,6.3,��
2023/04/03,09:30,0.564,0.823,0.494,1.030,0.727,0.321,0.575,0.546,�k�k��,5.8,��
2023/04/03,09:40,0.561,0.825,0.495,1.030,0.728,0.323,0.577,0.547,�k,6.9,��
2023/04/03,09:50,0.564,0.825,0.494,1.033,0.724,0.321,0.578,0.548,�k�k��,7.8,��
2023/04/03,10:00,0.563,0.827,0.497,1.030,0.725,0.322,0.577,0.549,�k�k��,7.1,��
2023/04/03,10:10,0.564,0.824,0.495,1.033,0.728,0.322,0.577,0.548,�k�k��,8.0,��
2023/04/03,10:20,0.563,0.825,0.495,1.032,0.727,0.322,0.577,0.547,�k�k��,7.9,��
2023/04/03,10:30,0.563,0.825,0.497,1.035,0.726,0.323,0.576,0.547,�k�k��,7.4,��
2023/04/03,10:40,0.563,0.825,0.495,1.031,0.725,0.321,0.578,0.548,�k�k��,7.4,��
2023/04/03,10:50,0.561,0.825,0.496,1.032,0.712,0.321,0.577,0.547,�k�k��,6.9,��
2023/04/03,11:00,0.562,0.823,0.495,1.033,0.719,0.322,0.578,0.546,�k�k��,7.2,��
2023/04/03,11:10,0.561,0.824,0.494,1.031,0.722,0.321,0.578,0.545,�k�k��,7.4,��
2023/04/03,11:20,0.560,0.825,0.494,1.032,0.723,0.320,0.579,0.545,�k�k��,7.3,��
2023/04/03,11:30,0.560,0.824,0.493,1.030,0.726,0.321,0.578,0.546,�k�k��,6.9,��
2023/04/03,11:40,0.560,0.824,0.494,1.032,0.726,0.321,0.577,0.546,�k�k��,7.1,��
2023/04/03,11:50,0.562,0.824,0.495,1.032,0.726,0.321,0.578,0.545,�k�k��,6.7,��
2023/04/03,12:00,0.561,0.826,0.493,1.033,0.727,0.321,0.580,0.548,�k�k��,6.9,��
2023/04/03,12:10,0.561,0.827,0.495,1.032,0.727,0.321,0.579,0.546,�k�k��,6.8,��
2023/04/03,12:20,0.560,0.826,0.495,1.033,0.726,0.321,0.577,0.546,�k�k��,6.9,��
2023/04/03,12:30,0.563,0.826,0.493,1.034,0.725,0.320,0.580,0.547,�k�k��,6.4,��
2023/04/03,12:40,0.562,0.827,0.494,1.033,0.725,0.322,0.578,0.545,�k�k��,6.4,��
2023/04/03,12:50,0.561,0.827,0.493,1.032,0.726,0.322,0.579,0.545,�k�k��,5.6,��
2023/04/03,13:00,0.560,0.822,0.494,1.034,0.726,0.321,0.578,0.548,�k�k��,5.9,��
2023/04/03,13:10,0.562,0.826,0.493,1.033,0.726,0.323,0.579,0.548,�k�k��,5.7,��
2023/04/03,13:20,0.562,0.825,0.495,1.034,0.727,0.323,0.579,0.547,�k�k��,5.8,��
2023/04/03,13:30,0.562,0.824,0.494,1.033,0.727,0.324,0.578,0.548,�k�k��,6.0,��
2023/04/03,13:40,0.562,0.825,0.494,1.036,0.726,0.323,0.580,0.548,�k�k��,6.0,��
2023/04/03,13:50,0.562,0.825,0.495,1.033,0.727,0.321,0.577,0.548,�k�k��,5.8,��
2023/04/03,14:00,0.562,0.826,0.495,1.033,0.727,0.322,0.580,0.548,�k�k��,5.0,��
2023/04/03,14:10,0.564,0.825,0.495,1.034,0.728,0.322,0.580,0.547,�k�k��,5.4,��
2023/04/03,14:20,0.564,0.826,0.495,1.033,0.727,0.323,0.580,0.546,�k�k��,5.2,��
2023/04/03,14:30,0.563,0.825,0.496,1.033,0.727,0.321,0.579,0.548,�k�k��,5.4,��
2023/04/03,14:40,0.563,0.828,0.494,1.035,0.727,0.323,0.579,0.547,�k��,4.7,��
2023/04/03,14:50,0.561,0.828,0.497,1.034,0.728,0.322,0.578,0.548,�k�k��,4.3,��
2023/04/03,15:00,0.564,0.826,0.495,1.034,0.730,0.323,0.579,0.547,�k�k��,5.6,��
2023/04/03,15:10,0.561,0.827,0.493,1.035,0.728,0.323,0.579,0.547,�k�k��,4.8,��
2023/04/03,15:20,0.564,0.828,0.494,1.034,0.727,0.324,0.579,0.547,�k�k��,4.5,��
2023/04/03,15:30,0.562,0.827,0.495,1.036,0.729,0.323,0.578,0.547,�k�k��,4.8,��
2023/04/03,15:40,0.562,0.829,0.497,1.035,0.729,0.322,0.579,0.547,�k�k��,4.9,��
2023/04/03,15:50,0.563,0.831,0.496,1.035,0.728,0.325,0.579,0.547,�k�k��,4.9,��
2023/04/03,16:00,0.564,0.831,0.495,1.037,0.726,0.324,0.579,0.547,�k�k��,3.8,��
2023/04/03,16:10,0.563,0.828,0.495,1.034,0.729,0.323,0.579,0.546,�k�k��,3.5,��
2023/04/03,16:20,0.565,0.830,0.496,1.032,0.727,0.324,0.579,0.546,�k�k��,4.0,��
2023/04/03,16:30,0.563,0.828,0.497,1.034,0.726,0.324,0.579,0.548,�k�k��,4.0,��
2023/04/03,16:40,0.562,0.827,0.494,1.032,0.727,0.323,0.578,0.549,�k�k��,3.2,��
2023/04/03,16:50,0.563,0.830,0.497,1.034,0.727,0.323,0.579,0.550,�k�k��,3.3,��
2023/04/03,17:00,0.564,0.829,0.496,1.031,0.727,0.324,0.579,0.551,�k,2.6,��
2023/04/03,17:10,0.565,0.828,0.494,1.032,0.728,0.324,0.578,0.549,�k�k��,2.0,��
2023/04/03,17:20,0.564,0.830,0.496,1.034,0.727,0.324,0.578,0.549,�k,2.0,��
2023/04/03,17:30,0.566,0.831,0.495,1.032,0.728,0.323,0.578,0.547,�k,1.7,��
2023/04/03,17:40,0.565,0.829,0.496,1.035,0.729,0.322,0.579,0.549,�k�k��,1.1,��
2023/04/03,17:50,0.565,0.829,0.498,1.035,0.731,0.324,0.580,0.549,�k,1.2,��
2023/04/03,18:00,0.565,0.830,0.497,1.035,0.730,0.323,0.579,0.548,�k,0.9,��
2023/04/03,18:10,0.566,0.830,0.497,1.034,0.730,0.323,0.580,0.548,�k,0.6,��
2023/04/03,18:20,0.564,0.830,0.496,1.036,0.730,0.322,0.582,0.548,�k,1.4,��
2023/04/03,18:30,0.565,0.828,0.496,1.034,0.728,0.323,0.580,0.547,�k�k��,0.9,��
2023/04/03,18:40,0.564,0.830,0.495,1.037,0.729,0.322,0.580,0.548,�k,1.5,��
2023/04/03,18:50,0.564,0.829,0.497,1.036,0.730,0.323,0.581,0.549,�k�k��,1.5,��
2023/04/03,19:00,0.564,0.828,0.496,1.033,0.731,0.323,0.578,0.548,�k�k��,1.7,��
2023/04/03,19:10,0.563,0.827,0.495,1.034,0.731,0.322,0.579,0.549,�k��,2.2,��
2023/04/03,19:20,0.563,0.829,0.496,1.037,0.729,0.322,0.580,0.548,�k��,2.6,��
2023/04/03,19:30,0.564,0.830,0.496,1.033,0.730,0.323,0.579,0.548,�k��,2.6,��
2023/04/03,19:40,0.565,0.828,0.497,1.036,0.729,0.325,0.580,0.549,�k��,2.6,��
2023/04/03,19:50,0.562,0.829,0.497,1.034,0.730,0.322,0.579,0.547,�k��,2.6,��
2023/04/03,20:00,0.564,0.828,0.495,1.034,0.729,0.322,0.579,0.548,�k��,3.3,��
2023/04/03,20:10,0.564,0.827,0.496,1.035,0.730,0.322,0.578,0.547,�k��,3.2,��
2023/04/03,20:20,0.564,0.828,0.497,1.033,0.729,0.323,0.580,0.548,�k��,3.0,��
2023/04/03,20:30,0.563,0.831,0.495,1.037,0.728,0.324,0.580,0.548,�k��,3.0,��
2023/04/03,20:40,0.564,0.829,0.495,1.035,0.730,0.321,0.580,0.549,�k��,3.2,��
2023/04/03,20:50,0.562,0.829,0.497,1.032,0.728,0.322,0.578,0.549,�k��,3.1,��
2023/04/03,21:00,0.563,0.829,0.496,1.035,0.729,0.321,0.579,0.548,�k��,3.3,��
2023/04/03,21:10,0.565,0.829,0.495,1.036,0.730,0.323,0.579,0.547,�k��,3.3,��
2023/04/03,21:20,0.561,0.828,0.497,1.037,0.731,0.321,0.581,0.549,�k��,3.5,��
2023/04/03,21:30,0.562,0.830,0.495,1.035,0.729,0.322,0.580,0.549,�k��,3.3,��
2023/04/03,21:40,0.563,0.830,0.495,1.036,0.730,0.324,0.580,0.549,�k��,3.5,��
2023/04/03,21:50,0.562,0.829,0.494,1.035,0.729,0.323,0.579,0.548,�k��,4.2,��
2023/04/03,22:00,0.561,0.828,0.495,1.038,0.729,0.322,0.581,0.547,�k��,4.3,��
2023/04/03,22:10,0.562,0.829,0.495,1.037,0.729,0.322,0.580,0.548,�k��,4.5,��
2023/04/03,22:20,0.564,0.828,0.495,1.035,0.730,0.323,0.580,0.547,�k��,4.6,��
2023/04/03,22:30,0.564,0.830,0.495,1.034,0.729,0.322,0.581,0.549,�k��,4.7,��
2023/04/03,22:40,0.562,0.826,0.496,1.036,0.729,0.322,0.580,0.548,�k��,4.3,��
2023/04/03,22:50,0.564,0.829,0.496,1.037,0.728,0.322,0.579,0.549,�k��,4.3,��
2023/04/03,23:00,0.563,0.829,0.495,1.036,0.730,0.321,0.579,0.548,�k��,4.2,��
2023/04/03,23:10,0.563,0.830,0.494,1.035,0.729,0.323,0.580,0.548,�k��,3.9,��
2023/04/03,23:20,0.562,0.829,0.496,1.035,0.730,0.322,0.579,0.548,�k��,4.0,��
2023/04/03,23:30,0.564,0.827,0.496,1.035,0.730,0.322,0.581,0.547,�k��,3.8,��
2023/04/03,23:40,0.563,0.828,0.495,1.036,0.727,0.322,0.580,0.547,�k��,3.7,��
2023/04/03,23:50,0.564,0.827,0.495,1.037,0.732,0.322,0.579,0.548,�k��,3.2,��
